Spokane Fairchild, WA
on Friday, November 30, 2012

Friday
Previous Day Next Day
Daily Summary
 ActualAverage (KGEG)Record (KGEG)
Temperature
Mean Temperature °F 30°F  
Max Temperature 50°F 35°F 54°F (1903)
Min Temperature 42°F 26°F -8°F (1985)
Degree Days
Heating Degree Days 19 35  
Month to date heating degree days 879  
Since 1 July heating degree days 1667  
Cooling Degree Days 0 0  
Month to date cooling degree days 0  
Year to date cooling degree days 450  
Moisture
Dew Point 45°F   
Average Humidity 100    
Maximum Humidity 100    
Minimum Humidity 99    
Precipitation
Precipitation 0.18 in 0.09 in 0.89 in (1882)
Month to date precipitation 2.30  
Year to date precipitation 14.26  
Snow
Snow 0.00 in 0.40 in 6.10 in (1975)
Month to date snowfall 7.4  
Since 1 July snowfall 7.5  
Since 1 September snowfall 7.5  
Snow Depth in   
Wind
Wind Speed 8 mph   
Max Wind Speed 21 mph   
Max Gust Speed 24 mph   
Visibility 10 miles   
Events Rain   

Key: T is trace of precipitation, MM is missing value
Source: NWS Daily Summary
Time(PST)TemperatureDew PointHumidity Pressure Visibility Wind DirectionWind SpeedGust SpeedPrecipitationEvents Conditions
12:28 AM 44.6°F 44.6°F 100% 29.60 in 10.0 miles SE 5.8 mph - N/A Rain Light Rain
12:38 AM 44.6°F 44.6°F 100% 29.59 in 10.0 miles SE 5.8 mph - N/A Rain Light Rain
12:43 AM 44.6°F 44.6°F 100% 29.59 in 10.0 miles SE 5.8 mph - N/A Rain Light Rain
12:58 AM 43.7°F 43.7°F 100% 29.62 in 10.0 miles SE 8.1 mph - 0.01 in Rain Light Rain
1:53 AM 44.6°F 44.6°F 100% 29.56 in 10.0 miles SE 10.4 mph - N/A Rain Light Rain
1:58 AM 43.9°F 43.9°F 100% 29.58 in 10.0 miles SE 10.4 mph - 0.00 in Rain Light Rain
2:03 AM 44.6°F 44.6°F 100% 29.56 in 10.0 miles SSE 10.4 mph - N/A Rain Light Rain
2:06 AM 44.6°F 44.6°F 100% 29.56 in 10.0 miles SSE 10.4 mph - N/A   Mostly Cloudy
2:09 AM 44.6°F 44.6°F 100% 29.56 in 10.0 miles SSE 12.7 mph 18.4 mph N/A Rain Light Rain
2:52 AM 44.6°F 44.6°F 100% 29.54 in 10.0 miles SSE 11.5 mph - N/A   Overcast
2:58 AM 43.9°F 43.9°F 100% 29.57 in 10.0 miles SSE 10.4 mph - 0.00 in   Overcast
3:07 AM 44.6°F 44.6°F 100% 29.53 in 10.0 miles SSE 10.4 mph - N/A Rain Light Rain
3:52 AM 44.6°F 44.6°F 100% 29.53 in 10.0 miles SSE 9.2 mph - N/A Rain Light Rain
3:57 AM 44.6°F 44.6°F 100% 29.53 in 10.0 miles SSE 9.2 mph - N/A Rain Light Rain
3:58 AM 43.7°F 43.7°F 100% 29.56 in 10.0 miles SSE 8.1 mph - 0.02 in Rain Light Rain
4:03 AM 44.6°F 44.6°F 100% 29.53 in 10.0 miles SSE 9.2 mph - N/A Rain Light Rain
4:18 AM 44.6°F 44.6°F 100% 29.53 in 10.0 miles SSE 6.9 mph - N/A   Overcast
4:20 AM 44.6°F 44.6°F 100% 29.53 in 10.0 miles SSE 6.9 mph - N/A Rain Light Rain
4:24 AM 44.6°F 44.6°F 100% 29.53 in 10.0 miles SSE 6.9 mph - N/A Rain Light Rain
4:34 AM 42.8°F 42.8°F 100% 29.52 in 10.0 miles South 6.9 mph - N/A Rain Light Rain
4:42 AM 42.8°F 42.8°F 100% 29.53 in 10.0 miles South 4.6 mph - N/A   Overcast
4:47 AM 42.8°F 42.8°F 100% 29.52 in 10.0 miles SSE 4.6 mph - N/A Rain Light Rain
4:57 AM 42.8°F 42.8°F 100% 29.53 in 10.0 miles SSE 5.8 mph - N/A   Overcast
4:58 AM 43.3°F 43.3°F 100% 29.56 in 10.0 miles SSE 5.8 mph - 0.01 in   Overcast
5:09 AM 42.8°F 42.8°F 100% 29.53 in 10.0 miles SSE 4.6 mph - N/A Rain Light Rain
5:19 AM 42.8°F 42.8°F 100% 29.52 in 10.0 miles South 4.6 mph - N/A Rain Light Rain
5:49 AM 44.6°F 44.6°F 100% 29.53 in 8.0 miles South 5.8 mph - N/A Rain Light Rain
5:58 AM 43.9°F 43.9°F 100% 29.56 in 6.0 miles SSE 8.1 mph - 0.02 in Rain Light Rain
6:07 AM 44.6°F 44.6°F 100% 29.53 in 9.0 miles SSE 6.9 mph - N/A Rain Light Rain
6:12 AM 44.6°F 44.6°F 100% 29.52 in 10.0 miles SSE 6.9 mph - N/A Rain Light Rain
6:15 AM 44.6°F 44.6°F 100% 29.52 in 10.0 miles SSE 8.1 mph - N/A   Overcast
6:58 AM 43.3°F 43.3°F 100% 29.56 in 10.0 miles SSE 8.1 mph - 0.00 in   Overcast
7:58 AM 43.3°F 43.3°F 100% 29.57 in 10.0 miles SSE 9.2 mph - N/A   Overcast
8:58 AM 44.6°F 44.6°F 100% 29.56 in 10.0 miles SSE 8.1 mph - N/A   Overcast
9:58 AM 46.0°F 46.0°F 100% 29.58 in 10.0 miles South 8.1 mph - 0.01 in   Overcast
10:11 AM 46.4°F 46.4°F 100% 29.55 in 10.0 miles South 8.1 mph - N/A Rain Light Rain
10:35 AM 46.4°F 46.4°F 100% 29.55 in 10.0 miles South 10.4 mph - N/A Rain Light Rain
10:58 AM 46.4°F 46.4°F 100% 29.59 in 10.0 miles South 8.1 mph - 0.00 in Rain Light Rain
11:26 AM 46.4°F 46.4°F 100% 29.55 in 10.0 miles South 11.5 mph - N/A   Overcast
11:58 AM 48.4°F 48.4°F 100% 29.56 in 10.0 miles South 12.7 mph - 0.01 in   Mostly Cloudy
12:38 PM 48.2°F 48.2°F 100% 29.55 in 10.0 miles SSW 13.8 mph 19.6 mph N/A   Mostly Cloudy
12:53 PM 50.0°F 50.0°F 100% 29.55 in 10.0 miles SSW 13.8 mph - N/A   Scattered Clouds
12:58 PM 49.3°F 49.3°F 100% 29.57 in 10.0 miles SSW 15.0 mph - N/A   Scattered Clouds
1:58 PM 48.9°F 48.9°F 100% 29.60 in 10.0 miles SSW 16.1 mph 23.0 mph N/A   Scattered Clouds
2:03 PM 48.2°F 48.2°F 100% 29.58 in 10.0 miles SSW 16.1 mph 23.0 mph N/A   Mostly Cloudy
2:23 PM 48.2°F 48.2°F 100% 29.58 in 10.0 miles SSW 16.1 mph 24.2 mph N/A   Scattered Clouds
2:58 PM 47.1°F 47.1°F 100% 29.61 in 10.0 miles South 8.1 mph - N/A   Clear
3:58 PM 44.6°F 44.6°F 100% 29.64 in 10.0 miles SSE 8.1 mph - N/A   Clear
4:58 PM 44.1°F 44.1°F 100% 29.63 in 10.0 miles SSE 6.9 mph - N/A   Mostly Cloudy
5:58 PM 42.8°F 42.8°F 100% 29.63 in 10.0 miles SSE 6.9 mph - N/A   Partly Cloudy
6:03 PM 42.8°F 42.8°F 100% 29.60 in 10.0 miles SSE 5.8 mph - N/A   Scattered Clouds
6:22 PM 44.6°F 44.6°F 100% 29.60 in 10.0 miles SSE 6.9 mph - N/A   Overcast
6:58 PM 43.5°F 43.5°F 100% 29.63 in 10.0 miles South 6.9 mph - 0.00 in   Overcast
7:18 PM 42.8°F 42.8°F 100% 29.60 in 10.0 miles South 8.1 mph - N/A Rain Light Rain
7:50 PM 44.6°F 44.6°F 100% 29.59 in 10.0 miles SSE 6.9 mph - N/A   Overcast
7:52 PM 44.6°F 44.6°F 100% 29.59 in 10.0 miles SSE 6.9 mph - N/A Rain Light Rain
7:58 PM 44.2°F 44.2°F 100% 29.62 in 10.0 miles SE 5.8 mph - 0.00 in Rain Light Rain
8:01 PM 44.6°F 44.6°F 100% 29.59 in 10.0 miles SE 5.8 mph - N/A   Overcast
8:58 PM 43.5°F 43.3°F 99% 29.61 in 10.0 miles ESE 6.9 mph - 0.00 in   Mostly Cloudy
9:58 PM 44.1°F 44.1°F 100% 29.60 in 10.0 miles South 4.6 mph - N/A   Overcast
10:31 PM 42.8°F 42.8°F 100% 29.58 in 10.0 miles South 6.9 mph - N/A Rain Light Rain
10:45 PM 44.6°F 44.6°F 100% 29.59 in 9.0 miles South 15.0 mph - N/A Rain Light Rain
10:58 PM 44.1°F 44.1°F 100% 29.59 in 10.0 miles South 20.7 mph - 0.02 in Rain Light Rain
11:13 PM 44.6°F 44.6°F 100% 29.59 in 9.0 miles South 16.1 mph - N/A Rain Heavy Rain
11:48 PM 42.8°F 42.8°F 100% 29.57 in 10.0 miles SSE 10.4 mph - N/A Rain Light Rain
11:49 PM 42.8°F 42.8°F 100% 29.58 in 10.0 miles SE 10.4 mph - N/A   Overcast
11:58 PM 43.2°F 43.2°F 100% 29.60 in 10.0 miles SSE 10.4 mph - 0.08 in   Mostly Cloudy
Moon Phase
Nov. 30 Dec. 06 Dec. 13 Dec. 20 Dec. 28
Sunrise:07:17 AM (PST) Moon Rise:06:01 PM (PST)11/30
Sunset:04:01 PM (PST) Moon Set:08:52 AM (PST)11/30

Copyright © 2014 The Weather Underground, Inc.